Regional Weather Roundup
Issued by NWS

Home | Current Version | Previous Version | Graphics & Text | Print | Product List | Glossary On
Versions: 1 2 3 4 5 6 7 8 9 10 11 12 13 14 15 16 17 18 19 20 21 22 23 24 25 26 27 28 29 30 31 32 33 34 35 36 37 38 39 40 41 42 43 44 45 46 47 48 49 50
000
ASUS45 KCYS 241910
RWRWY

WYOMING REGIONAL WEATHER ROUNDUP
NATIONAL WEATHER SERVICE CHEYENNE WY
100 PM MDT SUN MAY 24 2015

NOTE:  "FAIR" INDICATES FEW OR NO CLOUDS BELOW 12,000 FEET
WITH NO SIGNIFICANT WEATHER AND/OR OBSTRUCTIONS TO VISIBILITY.

WYZ001-242000-
YELLOWSTONE NATIONAL PARK

CITY           SKY/WX    TMP DP  RH WIND       PRES   REMARKS
LK YELLOWSTONE   N/A     49  31  49 VRB6      30.03F
W YELLOWSTONE  NOT AVBL

$$
WYZ002>013-054>058-071-098>099-242000-
NORTHERN WYOMING

CITY           SKY/WX    TMP DP  RH WIND       PRES   REMARKS
JACKSON        MOSUNNY   55  37  50 N12G21    29.94F
CODY           CLOUDY    48  45  87 N12       30.00F
GREYBULL       CLOUDY    57  45  64 NW24      29.90S
WORLAND        LGT RAIN  53  47  79 NW14      29.92F
SHERIDAN       RAIN      50  48  93 N10       29.98S FOG
BUFFALO        RAIN      49  47  93 N15G26    29.96F FOG
GILLETTE       LGT RAIN  52  49  89 NE14      29.91F FOG
HULETT         DRIZZLE   52  50  93 NE12      29.94F
NEWCASTLE      FAIR      54  46  76 SE5       29.91S

$$
WYZ014>020-022>026-101>103-242000-
CENTRAL WYOMING

CITY           SKY/WX    TMP DP  RH WIND       PRES   REMARKS
BIG PINEY      CLOUDY    55  35  47 N9G22     29.94F
PINEDALE       DRIZZLE   48  37  66 W10G17    29.95S
DUBOIS         DRIZZLE   45  37  76 E3        29.99S
LANDER         LGT RAIN  46  40  79 NW10      29.96S
RIVERTON       LGT RAIN  46  42  86 NW8       29.97S
CASPER         CLOUDY    55  44  66 VRB5      29.89F
DOUGLAS        FAIR      58  45  62 SE7       29.87F

$$
WYZ021-027>030-104>119-242000-
SOUTHERN WYOMING

CITY           SKY/WX    TMP DP  RH WIND       PRES   REMARKS
EVANSTON       CLOUDY    52  38  58 W8G18     29.97F
KEMMERER       CLOUDY    45  36  70 NE16G28   29.96S
FORT BRIDGER   LGT RAIN  52  41  66 NW15G21   29.98S
ROCK SPRINGS   LGT RAIN  37  36  96 S5        29.98F WCI  33
DIXON          CLOUDY    43  39  88 SW6       29.98F
RAWLINS        CLOUDY    44  38  79 SW10      29.95R
SARATOGA       MOCLDY    46  41  81 NW5       29.94S
LARAMIE        FAIR      53  32  44 SE15      29.89F
CHEYENNE       PTSUNNY   56  39  53 E8        29.88F
TORRINGTON     FAIR      62  48  60 S7        29.83F
PINE BLUFFS    MOCLDY    61  41  48 NE5       29.87F

$$



USA.gov is the U.S. government's official web portal to all federal, state and local government web resources and services.